QPF
0.07 0.06 0.04 0.04 0.04 0.03 0.04 0.03 0.02 0.02 0.02 0.01 0.01 0.01 0.01 0.03 0.05 0.05 0.06 0.03 0.02 0.02 0.02 0.02 0.03 0.03 0.03 0.03 0.03 0.02 0.03 0.03 0.03 0.02 0.02 0.02 0.02 0.01 0.01 0.00 0.00 0.00 0.00
0.06 0.05 0.04 0.03 0.03 0.03 0.02 0.02 0.01 0.02 0.02 0.01 0.01 0.01 0.01 0.02 0.03 0.07 0.07 0.04 0.02 0.01 0.02 0.02 0.02 0.02 0.02 0.03 0.03 0.02 0.02 0.03 0.03 0.02 0.02 0.01 0.01 0.01 0.01 0.01 0.01 0.00 0.00
0.05 0.04 0.04 0.03 0.03 0.02 0.02 0.01 0.01 0.01 0.02 0.01 0.02 0.02 0.02 0.02 0.03 0.05 0.05 0.04 0.03 0.03 0.02 0.02 0.03 0.03 0.03 0.03 0.03 0.03 0.02 0.02 0.03 0.02 0.02 0.02 0.01 0.01 0.00 0.01 0.01 0.01 0.00
0.04 0.04 0.04 0.03 0.02 0.02 0.02 0.02 0.01 0.01 0.02 0.02 0.02 0.03 0.03 0.02 0.02 0.02 0.03 0.03 0.04 0.06 0.04 0.02 0.02 0.02 0.03 0.04 0.04 0.03 0.02 0.02 0.02 0.03 0.02 0.01 0.01 0.01 0.01 0.01 0.00 0.00 0.00
0.03 0.03 0.03 0.03 0.01 0.01 0.01 0.01 0.01 0.01 0.02 0.03 0.02 0.02 0.03 0.02 0.02 0.01 0.01 0.02 0.03 0.05 0.04 0.02 0.01 0.02 0.02 0.03 0.04 0.04 0.04 0.03 0.02 0.02 0.02 0.02 0.01 0.01 0.01 0.01 0.01 0.00 0.00
0.03 0.03 0.03 0.02 0.01 0.01 0.00 0.00 0.01 0.02 0.03 0.02 0.01 0.02 0.03 0.03 0.02 0.02 0.01 0.01 0.02 0.02 0.02 0.02 0.02 0.01 0.01 0.02 0.05 0.06 0.06 0.05 0.03 0.02 0.03 0.04 0.04 0.03 0.02 0.01 0.01 0.01 0.00
0.02 0.02 0.02 0.02 0.01 0.01 0.01 0.01 0.01 0.01 0.01 0.01 0.03 0.04 0.04 0.03 0.02 0.02 0.01 0.01 0.01 0.02 0.02 0.03 0.03 0.02 0.02 0.01 0.02 0.04 0.06 0.06 0.05 0.04 0.04 0.04 0.04 0.04 0.03 0.02 0.01 0.01 0.01
0.01 0.01 0.02 0.01 0.01 0.02 0.01 0.01 0.01 0.01 0.01 0.01 0.02 0.04 0.05 0.05 0.03 0.01 0.01 0.01 0.01 0.02 0.02 0.02 0.02 0.02 0.02 0.03 0.02 0.02 0.03 0.03 0.05 0.07 0.06 0.05 0.04 0.04 0.03 0.03 0.02 0.02 0.02
0.01 0.02 0.02 0.01 0.01 0.01 0.01 0.01 0.01 0.01 0.01 0.01 0.01 0.02 0.04 0.05 0.04 0.02 0.01 0.01 0.01 0.01 0.01 0.01 0.01 0.01 0.01 0.03 0.03 0.02 0.01 0.02 0.02 0.05 0.06 0.04 0.03 0.03 0.03 0.03 0.03 0.03 0.03
0.01 0.01 0.01 0.01 0.01 0.01 0.02 0.01 0.00 0.00 0.01 0.01 0.01 0.01 0.01 0.02 0.03 0.03 0.01 0.01 0.01 0.01 0.01 0.01 0.01 0.01 0.01 0.01 0.02 0.01 0.01 0.01 0.01 0.02 0.03 0.03 0.03 0.03 0.02 0.02 0.04 0.04 0.04
0.01 0.01 0.01 0.01 0.01 0.01 0.01 0.01 0.01 0.00 0.00 0.01 0.00 0.00 0.00 0.01 0.01 0.02 0.02 0.02 0.01 0.01 0.01 0.01 0.01 0.01 0.01 0.01 0.02 0.01 0.01 0.00 0.00 0.01 0.01 0.02 0.02 0.01 0.02 0.02 0.03 0.04 0.04
0.01 0.01 0.01 0.02 0.01 0.01 0.01 0.01 0.01 0.00 0.00 0.00 0.00 0.00 0.01 0.01 0.01 0.01 0.01 0.01 0.01 0.01 0.01 0.01 0.01 0.00 0.00 0.01 0.01 0.01 0.01 0.00 0.00 0.00 0.00 0.01 0.01 0.01 0.01 0.01 0.02 0.03 0.04
0.02 0.02 0.02 0.02 0.02 0.02 0.01 0.01 0.01 0.00 0.00 0.00 0.00 0.00 0.00 0.01 0.01 0.00 0.00 0.01 0.01 0.01 0.01 0.01 0.01 0.00 0.00 0.00 0.00 0.00 0.00 0.00 0.00 0.00 0.00 0.00 0.00 0.01 0.01 0.01 0.01 0.01 0.03
0.02 0.02 0.02 0.02 0.02 0.02 0.02 0.01 0.01 0.00 0.00 0.00 0.00 0.00 0.00 0.00 0.00 0.00 0.00 0.00 0.01 0.01 0.01 0.01 0.01 0.01 0.00 0.00 0.00 0.00 0.00 0.00 0.00 0.00 0.00 0.00 0.00 0.00 0.00 0.00 0.00 0.00 0.00
0.04 0.04 0.03 0.03 0.02 0.03 0.03 0.02 0.02 0.01 0.01 0.01 0.00 0.00 0.00 0.00 0.00 0.00 0.00 0.00 0.00 0.01 0.01 0.01 0.01 0.01 0.01 0.01 0.00 0.00 0.00 0.00 0.00 0.00 0.00 0.00 0.00 0.00 0.00 0.00 0.00 0.00 0.00
0.05 0.06 0.05 0.04 0.04 0.04 0.04 0.04 0.03 0.03 0.02 0.01 0.01 0.01 0.01 0.00 0.00 0.00 0.00 0.00 0.00 0.00 0.00 0.00 0.00 0.00 0.01 0.01 0.00 0.00 0.00 0.00 0.00 0.00 0.00 0.00 0.00 0.00 0.00 0.00 0.00 0.00 0.00
0.08 0.07 0.07 0.07 0.07 0.07 0.06 0.06 0.05 0.04 0.03 0.03 0.02 0.01 0.01 0.01 0.00 0.00 0.00 0.00 0.00 0.00 0.00 0.00 0.00 0.00 0.00 0.00 0.00 0.00 0.00 0.00 0.00 0.00 0.00 0.00 0.00 0.00 0.00 0.00 0.00 0.00 0.00
0.11 0.11 0.11 0.10 0.07 0.08 0.10 0.09 0.07 0.06 0.05 0.04 0.03 0.03 0.03 0.02 0.02 0.01 0.01 0.01 0.01 0.01 0.00 0.01 0.00 0.00 0.01 0.01 0.01 0.01 0.00 0.00 0.00 0.01 0.01 0.00 0.00 0.00 0.00 0.00 0.00 0.00 0.00
0.12 0.13 0.13 0.14 0.11 0.10 0.10 0.09 0.09 0.08 0.06 0.05 0.04 0.04 0.03 0.03 0.03 0.03 0.03 0.03 0.03 0.02 0.03 0.02 0.01 0.02 0.01 0.02 0.04 0.03 0.01 0.02 0.00 0.01 0.01 0.00 0.00 0.00 0.00 0.00 0.00 0.00 0.00
0.11 0.13 0.13 0.14 0.14 0.11 0.11 0.10 0.10 0.10 0.11 0.10 0.08 0.07 0.06 0.05 0.05 0.05 0.06 0.05 0.06 0.06 0.06 0.05 0.03 0.03 0.03 0.03 0.06 0.06 0.05 0.05 0.02 0.01 0.01 0.01 0.00 0.00 0.00 0.00 0.00 0.00 0.00
0.10 0.11 0.14 0.16 0.16 0.13 0.11 0.12 0.13 0.13 0.15 0.15 0.14 0.12 0.10 0.09 0.07 0.07 0.05 0.06 0.06 0.06 0.06 0.06 0.05 0.05 0.06 0.08 0.08 0.08 0.08 0.06 0.03 0.01 0.02 0.01 0.01 0.02 0.02 0.01 0.00 0.00 0.00
0.15 0.16 0.18 0.18 0.17 0.12 0.11 0.10 0.10 0.13 0.16 0.18 0.19 0.19 0.15 0.11 0.08 0.06 0.03 0.03 0.04 0.05 0.06 0.08 0.08 0.08 0.10 0.10 0.10 0.09 0.09 0.08 0.05 0.02 0.04 0.02 0.01 0.01 0.01 0.01 0.01 0.01 0.00
0.20 0.19 0.18 0.17 0.16 0.14 0.11 0.09 0.08 0.10 0.12 0.15 0.17 0.17 0.14 0.10 0.08 0.06 0.05 0.05 0.04 0.03 0.03 0.04 0.06 0.07 0.10 0.11 0.11 0.09 0.10 0.09 0.06 0.04 0.06 0.04 0.02 0.02 0.01 0.01 0.02 0.02 0.01
0.17 0.15 0.15 0.16 0.16 0.13 0.11 0.08 0.07 0.07 0.10 0.10 0.10 0.10 0.10 0.09 0.06 0.06 0.06 0.06 0.06 0.06 0.06 0.05 0.05 0.05 0.06 0.07 0.09 0.08 0.08 0.07 0.04 0.04 0.08 0.07 0.03 0.03 0.02 0.02 0.02 0.02 0.01
0.12 0.10 0.10 0.10 0.10 0.09 0.08 0.07 0.06 0.06 0.08 0.08 0.07 0.07 0.07 0.07 0.07 0.05 0.05 0.06 0.07 0.08 0.07 0.07 0.06 0.05 0.04 0.04 0.05 0.05 0.06 0.07 0.05 0.03 0.06 0.09 0.05 0.03 0.02 0.02 0.02 0.04 0.02
0.08 0.08 0.08 0.07 0.07 0.06 0.04 0.04 0.03 0.04 0.06 0.08 0.07 0.07 0.08 0.07 0.05 0.04 0.05 0.06 0.08 0.09 0.08 0.07 0.08 0.08 0.07 0.06 0.07 0.05 0.06 0.06 0.07 0.05 0.05 0.08 0.07 0.06 0.04 0.01 0.01 0.03 0.03
MSLP
1014.71 1014.81 1014.85 1014.87 1014.91 1014.99 1015.12 1015.28 1015.45 1015.60 1015.71 1015.78 1015.83 1015.88 1015.97 1016.13 1016.39 1016.74 1017.16 1017.63 1018.10 1018.54 1018.92 1019.25 1019.51 1019.72 1019.90 1020.07 1020.23 1020.40 1020.56 1020.73 1020.90 1021.08 1021.25 1021.44 1021.64 1021.86 1022.07 1022.28 1022.48 1022.65 1022.80
1014.60 1014.74 1014.81 1014.85 1014.91 1015.00 1015.14 1015.32 1015.51 1015.70 1015.86 1015.99 1016.09 1016.18 1016.28 1016.43 1016.62 1016.89 1017.21 1017.58 1017.96 1018.35 1018.72 1019.05 1019.35 1019.61 1019.84 1020.04 1020.22 1020.39 1020.54 1020.69 1020.85 1021.02 1021.21 1021.43 1021.66 1021.90 1022.15 1022.38 1022.59 1022.76 1022.90
1014.51 1014.69 1014.81 1014.91 1015.01 1015.14 1015.30 1015.49 1015.71 1015.93 1016.13 1016.30 1016.44 1016.56 1016.66 1016.77 1016.90 1017.07 1017.28 1017.53 1017.82 1018.13 1018.46 1018.79 1019.11 1019.40 1019.68 1019.91 1020.12 1020.29 1020.45 1020.60 1020.75 1020.92 1021.12 1021.35 1021.61 1021.88 1022.16 1022.41 1022.62 1022.80 1022.94
1014.43 1014.67 1014.86 1015.03 1015.19 1015.36 1015.55 1015.76 1015.99 1016.22 1016.44 1016.64 1016.80 1016.94 1017.04 1017.12 1017.19 1017.27 1017.37 1017.51 1017.69 1017.92 1018.18 1018.48 1018.80 1019.12 1019.42 1019.69 1019.92 1020.11 1020.28 1020.42 1020.57 1020.75 1020.96 1021.20 1021.47 1021.76 1022.05 1022.31 1022.54 1022.73 1022.87
1014.37 1014.67 1014.93 1015.17 1015.40 1015.61 1015.82 1016.04 1016.26 1016.49 1016.71 1016.92 1017.10 1017.24 1017.34 1017.41 1017.44 1017.46 1017.48 1017.52 1017.60 1017.73 1017.93 1018.18 1018.48 1018.79 1019.11 1019.40 1019.65 1019.86 1020.03 1020.18 1020.33 1020.51 1020.72 1020.96 1021.24 1021.53 1021.82 1022.09 1022.32 1022.51 1022.66
1014.33 1014.67 1015.00 1015.31 1015.59 1015.84 1016.07 1016.28 1016.48 1016.68 1016.89 1017.09 1017.28 1017.44 1017.56 1017.63 1017.65 1017.63 1017.60 1017.56 1017.56 1017.61 1017.74 1017.93 1018.18 1018.48 1018.78 1019.08 1019.34 1019.56 1019.75 1019.90 1020.06 1020.23 1020.43 1020.66 1020.92 1021.20 1021.48 1021.74 1021.96 1022.15 1022.31
1014.31 1014.68 1015.07 1015.43 1015.75 1016.03 1016.26 1016.45 1016.62 1016.79 1016.96 1017.15 1017.34 1017.52 1017.67 1017.77 1017.82 1017.80 1017.74 1017.66 1017.60 1017.58 1017.63 1017.76 1017.96 1018.21 1018.49 1018.78 1019.04 1019.27 1019.46 1019.63 1019.78 1019.95 1020.14 1020.35 1020.59 1020.84 1021.09 1021.33 1021.53 1021.71 1021.87
1014.31 1014.71 1015.13 1015.52 1015.88 1016.16 1016.39 1016.56 1016.69 1016.82 1016.97 1017.14 1017.34 1017.54 1017.73 1017.88 1017.96 1017.97 1017.92 1017.82 1017.72 1017.65 1017.63 1017.68 1017.81 1018.02 1018.26 1018.52 1018.78 1019.01 1019.21 1019.38 1019.55 1019.71 1019.89 1020.08 1020.29 1020.51 1020.72 1020.92 1021.10 1021.26 1021.41
1014.34 1014.75 1015.19 1015.61 1015.97 1016.27 1016.48 1016.63 1016.73 1016.83 1016.95 1017.11 1017.31 1017.53 1017.76 1017.96 1018.09 1018.14 1018.11 1018.02 1017.90 1017.78 1017.71 1017.69 1017.76 1017.90 1018.09 1018.32 1018.56 1018.80 1019.00 1019.20 1019.37 1019.54 1019.71 1019.89 1020.07 1020.26 1020.44 1020.60 1020.74 1020.88 1021.00
1014.39 1014.81 1015.25 1015.68 1016.06 1016.36 1016.57 1016.70 1016.79 1016.86 1016.96 1017.10 1017.31 1017.55 1017.81 1018.04 1018.22 1018.31 1018.31 1018.23 1018.10 1017.95 1017.82 1017.75 1017.75 1017.83 1017.97 1018.17 1018.39 1018.62 1018.84 1019.05 1019.24 1019.43 1019.60 1019.78 1019.95 1020.11 1020.26 1020.39 1020.50 1020.60 1020.70
1014.45 1014.86 1015.31 1015.74 1016.13 1016.43 1016.65 1016.78 1016.87 1016.93 1017.02 1017.15 1017.35 1017.59 1017.86 1018.12 1018.32 1018.44 1018.46 1018.39 1018.26 1018.08 1017.92 1017.80 1017.75 1017.77 1017.87 1018.02 1018.22 1018.45 1018.68 1018.90 1019.12 1019.33 1019.53 1019.71 1019.88 1020.04 1020.17 1020.28 1020.36 1020.44 1020.51
1014.50 1014.91 1015.34 1015.78 1016.17 1016.49 1016.72 1016.87 1016.96 1017.03 1017.11 1017.23 1017.42 1017.65 1017.91 1018.16 1018.37 1018.49 1018.53 1018.46 1018.33 1018.15 1017.96 1017.81 1017.71 1017.68 1017.74 1017.86 1018.03 1018.24 1018.48 1018.72 1018.96 1019.19 1019.41 1019.62 1019.81 1019.97 1020.11 1020.21 1020.28 1020.34 1020.38
1014.52 1014.91 1015.34 1015.77 1016.17 1016.51 1016.76 1016.94 1017.05 1017.12 1017.20 1017.31 1017.47 1017.67 1017.90 1018.13 1018.32 1018.44 1018.47 1018.42 1018.29 1018.11 1017.92 1017.74 1017.62 1017.56 1017.57 1017.66 1017.80 1017.99 1018.21 1018.45 1018.70 1018.95 1019.20 1019.44 1019.65 1019.84 1019.99 1020.10 1020.17 1020.22 1020.25
1014.50 1014.87 1015.28 1015.71 1016.11 1016.46 1016.74 1016.94 1017.08 1017.16 1017.24 1017.33 1017.46 1017.62 1017.81 1018.00 1018.16 1018.26 1018.29 1018.25 1018.13 1017.97 1017.79 1017.62 1017.48 1017.40 1017.38 1017.42 1017.52 1017.68 1017.86 1018.08 1018.33 1018.59 1018.85 1019.10 1019.34 1019.55 1019.73 1019.86 1019.95 1020.00 1020.02
1014.44 1014.79 1015.18 1015.59 1015.99 1016.35 1016.65 1016.87 1017.02 1017.12 1017.20 1017.27 1017.36 1017.48 1017.62 1017.76 1017.89 1017.98 1018.01 1017.98 1017.90 1017.77 1017.62 1017.47 1017.34 1017.24 1017.19 1017.19 1017.24 1017.34 1017.48 1017.65 1017.86 1018.09 1018.35 1018.60 1018.86 1019.08 1019.28 1019.44 1019.54 1019.61 1019.64
1014.36 1014.68 1015.04 1015.44 1015.83 1016.19 1016.49 1016.73 1016.89 1016.99 1017.06 1017.11 1017.17 1017.25 1017.35 1017.46 1017.57 1017.65 1017.69 1017.69 1017.64 1017.56 1017.45 1017.33 1017.22 1017.12 1017.05 1017.01 1017.00 1017.02 1017.09 1017.19 1017.34 1017.52 1017.74 1017.97 1018.21 1018.44 1018.64 1018.81 1018.94 1019.03 1019.08
1014.28 1014.58 1014.92 1015.29 1015.66 1016.01 1016.31 1016.54 1016.71 1016.81 1016.86 1016.90 1016.94 1016.99 1017.06 1017.15 1017.24 1017.33 1017.39 1017.42 1017.43 1017.40 1017.34 1017.26 1017.17 1017.08 1016.98 1016.90 1016.83 1016.78 1016.76 1016.78 1016.84 1016.94 1017.09 1017.26 1017.46 1017.66 1017.86 1018.02 1018.16 1018.26 1018.33
1014.22 1014.51 1014.84 1015.19 1015.54 1015.88 1016.16 1016.38 1016.53 1016.62 1016.67 1016.69 1016.72 1016.76 1016.82 1016.90 1016.99 1017.09 1017.18 1017.25 1017.30 1017.32 1017.31 1017.27 1017.20 1017.11 1017.00 1016.88 1016.76 1016.64 1016.53 1016.46 1016.42 1016.43 1016.48 1016.58 1016.70 1016.85 1017.00 1017.14 1017.27 1017.37 1017.45
1014.20 1014.49 1014.82 1015.17 1015.51 1015.82 1016.08 1016.28 1016.41 1016.49 1016.53 1016.55 1016.58 1016.61 1016.68 1016.76 1016.87 1016.98 1017.09 1017.20 1017.27 1017.32 1017.35 1017.33 1017.28 1017.20 1017.09 1016.94 1016.77 1016.60 1016.42 1016.26 1016.13 1016.04 1015.99 1015.99 1016.02 1016.09 1016.17 1016.26 1016.35 1016.43 1016.51
1014.22 1014.55 1014.89 1015.25 1015.58 1015.87 1016.11 1016.29 1016.40 1016.47 1016.50 1016.53 1016.56 1016.61 1016.68 1016.78 1016.90 1017.02 1017.14 1017.25 1017.34 1017.40 1017.43 1017.42 1017.38 1017.30 1017.18 1017.02 1016.83 1016.62 1016.40 1016.18 1015.97 1015.79 1015.65 1015.54 1015.48 1015.44 1015.44 1015.45 1015.48 1015.52 1015.57
1014.28 1014.66 1015.05 1015.43 1015.76 1016.04 1016.27 1016.42 1016.52 1016.58 1016.61 1016.64 1016.69 1016.75 1016.84 1016.95 1017.07 1017.19 1017.29 1017.38 1017.45 1017.49 1017.50 1017.48 1017.42 1017.33 1017.21 1017.06 1016.87 1016.65 1016.41 1016.16 1015.91 1015.67 1015.45 1015.25 1015.08 1014.95 1014.84 1014.76 1014.71 1014.69 1014.69
1014.38 1014.84 1015.29 1015.70 1016.05 1016.33 1016.54 1016.68 1016.76 1016.81 1016.85 1016.89 1016.95 1017.03 1017.13 1017.24 1017.35 1017.44 1017.52 1017.56 1017.57 1017.56 1017.52 1017.46 1017.37 1017.27 1017.15 1017.00 1016.84 1016.64 1016.41 1016.16 1015.90 1015.63 1015.35 1015.08 1014.83 1014.60 1014.39 1014.22 1014.08 1013.98 1013.92
1014.55 1015.09 1015.60 1016.05 1016.42 1016.71 1016.91 1017.03 1017.11 1017.15 1017.19 1017.24 1017.31 1017.40 1017.50 1017.60 1017.69 1017.74 1017.76 1017.74 1017.68 1017.59 1017.48 1017.35 1017.23 1017.10 1016.97 1016.84 1016.69 1016.53 1016.34 1016.12 1015.87 1015.60 1015.30 1014.99 1014.67 1014.36 1014.07 1013.80 1013.58 1013.40 1013.26
1014.81 1015.43 1015.99 1016.48 1016.87 1017.16 1017.36 1017.47 1017.53 1017.57 1017.60 1017.65 1017.73 1017.82 1017.92 1018.00 1018.05 1018.06 1018.01 1017.91 1017.77 1017.59 1017.39 1017.19 1017.01 1016.85 1016.71 1016.58 1016.46 1016.33 1016.19 1016.01 1015.79 1015.53 1015.23 1014.90 1014.55 1014.19 1013.83 1013.49 1013.19 1012.93 1012.72
1015.20 1015.88 1016.48 1017.00 1017.40 1017.69 1017.88 1017.97 1018.02 1018.04 1018.07 1018.11 1018.18 1018.26 1018.34 1018.40 1018.42 1018.38 1018.27 1018.09 1017.86 1017.60 1017.32 1017.04 1016.80 1016.59 1016.43 1016.29 1016.19 1016.08 1015.97 1015.82 1015.64 1015.41 1015.12 1014.79 1014.43 1014.03 1013.63 1013.24 1012.88 1012.56 1012.28
1015.74 1016.45 1017.08 1017.61 1018.01 1018.29 1018.45 1018.53 1018.56 1018.56 1018.56 1018.59 1018.64 1018.71 1018.77 1018.80 1018.78 1018.70 1018.53 1018.30 1018.00 1017.67 1017.32 1016.99 1016.69 1016.43 1016.23 1016.07 1015.95 1015.85 1015.74 1015.62 1015.45 1015.24 1014.97 1014.65 1014.28 1013.88 1013.45 1013.03 1012.63 1012.26 1011.93
Thickness
5750 5749 5748 5747 5747 5746 5744 5743 5743 5742 5742 5741 5741 5740 5738 5736 5734 5732 5728 5726 5724 5722 5721 5720 5719 5718 5717 5717 5716 5715 5714 5714 5713 5712 5712 5711 5711 5710 5709 5709 5708 5708 5707
5749 5748 5747 5747 5746 5746 5745 5743 5743 5741 5740 5740 5740 5739 5738 5736 5733 5731 5728 5725 5723 5721 5720 5719 5718 5717 5717 5716 5715 5714 5714 5712 5712 5711 5711 5710 5710 5709 5708 5708 5707 5706 5706
5748 5747 5746 5746 5746 5745 5744 5743 5742 5741 5740 5739 5738 5737 5736 5735 5733 5731 5728 5725 5723 5721 5720 5719 5718 5717 5716 5715 5714 5713 5713 5712 5711 5710 5710 5709 5709 5708 5708 5707 5706 5705 5705
5746 5746 5746 5746 5745 5746 5744 5743 5743 5741 5739 5738 5736 5736 5735 5734 5733 5731 5729 5727 5725 5722 5720 5719 5718 5717 5716 5715 5714 5713 5712 5711 5711 5710 5709 5709 5708 5707 5707 5706 5705 5704 5704
5745 5745 5745 5744 5745 5745 5745 5744 5741 5740 5737 5737 5736 5735 5735 5734 5733 5732 5731 5729 5727 5725 5722 5719 5718 5717 5716 5715 5715 5714 5712 5711 5710 5710 5709 5708 5707 5706 5706 5705 5704 5704 5703
5744 5745 5744 5743 5745 5744 5743 5742 5740 5739 5737 5736 5737 5735 5735 5734 5733 5733 5732 5731 5729 5727 5724 5722 5719 5717 5717 5716 5715 5714 5713 5712 5711 5710 5709 5708 5707 5706 5705 5704 5704 5703 5702
5743 5743 5744 5743 5743 5742 5742 5741 5739 5737 5736 5737 5733 5730 5732 5734 5734 5733 5732 5732 5731 5729 5726 5724 5721 5720 5718 5716 5716 5715 5714 5713 5712 5710 5709 5708 5707 5706 5705 5704 5703 5703 5702
5742 5743 5743 5742 5742 5741 5741 5740 5738 5735 5736 5737 5732 5726 5722 5724 5730 5735 5733 5731 5731 5730 5728 5726 5724 5722 5720 5718 5716 5716 5715 5714 5712 5711 5710 5708 5707 5706 5705 5704 5703 5703 5702
5742 5743 5742 5743 5742 5741 5739 5738 5738 5736 5733 5736 5736 5729 5721 5717 5722 5729 5732 5732 5731 5730 5729 5728 5726 5724 5722 5720 5718 5716 5715 5714 5713 5712 5710 5709 5707 5706 5705 5704 5703 5703 5702
5741 5741 5741 5741 5741 5741 5739 5738 5738 5738 5735 5733 5735 5735 5732 5729 5722 5719 5726 5730 5731 5730 5729 5729 5728 5726 5723 5721 5719 5717 5715 5714 5713 5712 5710 5709 5708 5707 5706 5705 5704 5703 5702
5740 5741 5740 5739 5739 5739 5739 5738 5737 5737 5736 5734 5733 5734 5733 5732 5731 5723 5718 5723 5727 5730 5730 5729 5729 5727 5725 5723 5720 5718 5716 5714 5713 5711 5710 5708 5707 5707 5706 5705 5704 5703 5702
5739 5739 5739 5738 5737 5738 5737 5736 5736 5735 5734 5734 5733 5734 5733 5730 5728 5727 5722 5722 5723 5727 5730 5730 5729 5728 5726 5724 5722 5719 5716 5714 5712 5710 5709 5708 5707 5706 5705 5704 5703 5702 5701
5737 5738 5739 5737 5736 5736 5735 5735 5733 5734 5733 5732 5732 5732 5733 5734 5734 5731 5726 5724 5724 5726 5728 5729 5730 5729 5727 5725 5722 5719 5716 5714 5711 5710 5708 5707 5706 5705 5704 5703 5702 5701 5700
5740 5739 5739 5736 5735 5735 5735 5733 5733 5732 5732 5730 5731 5730 5730 5732 5733 5731 5728 5724 5719 5720 5723 5726 5730 5729 5728 5725 5721 5718 5715 5713 5711 5709 5707 5706 5704 5703 5702 5701 5700 5699 5698
5741 5739 5738 5735 5734 5733 5732 5731 5730 5730 5730 5728 5728 5727 5726 5728 5730 5730 5729 5726 5718 5711 5714 5722 5726 5729 5727 5724 5721 5717 5715 5712 5710 5708 5706 5704 5703 5702 5700 5699 5698 5697 5696
5741 5738 5736 5734 5733 5731 5729 5728 5727 5728 5726 5725 5725 5724 5724 5725 5726 5727 5726 5725 5722 5716 5711 5719 5722 5726 5724 5723 5718 5716 5714 5712 5709 5707 5705 5704 5702 5701 5699 5698 5697 5695 5694
5738 5735 5734 5732 5730 5728 5727 5724 5723 5725 5723 5722 5723 5722 5720 5720 5720 5721 5721 5720 5718 5716 5709 5713 5719 5721 5719 5716 5713 5712 5710 5709 5707 5706 5705 5703 5701 5700 5698 5697 5695 5694 5693
5734 5733 5731 5728 5727 5726 5724 5722 5720 5721 5719 5718 5718 5717 5716 5717 5715 5714 5713 5713 5713 5713 5708 5705 5708 5711 5711 5711 5709 5707 5706 5706 5706 5705 5704 5702 5700 5698 5696 5695 5693 5692 5691
5730 5729 5727 5725 5723 5722 5721 5719 5717 5717 5716 5715 5714 5713 5711 5710 5708 5707 5707 5706 5706 5707 5705 5700 5700 5703 5704 5704 5702 5701 5701 5700 5700 5702 5701 5699 5697 5694 5693 5691 5690 5689 5688
5725 5724 5722 5721 5719 5718 5716 5715 5714 5712 5710 5710 5710 5708 5707 5705 5703 5701 5700 5699 5698 5697 5696 5694 5693 5693 5694 5697 5695 5691 5689 5691 5692 5693 5694 5694 5692 5690 5689 5688 5686 5685 5684
5721 5719 5717 5715 5714 5712 5709 5709 5708 5707 5705 5704 5703 5702 5700 5699 5697 5695 5693 5691 5690 5688 5686 5685 5684 5684 5684 5683 5683 5683 5680 5681 5683 5684 5684 5685 5685 5683 5682 5681 5680 5680 5680
5716 5713 5711 5707 5704 5702 5700 5701 5701 5700 5699 5697 5695 5693 5692 5690 5689 5686 5685 5683 5680 5678 5676 5674 5673 5672 5672 5673 5672 5672 5670 5667 5667 5673 5671 5672 5674 5674 5676 5675 5676 5675 5675
5708 5705 5702 5698 5694 5690 5691 5692 5692 5692 5691 5688 5686 5684 5683 5681 5678 5677 5676 5674 5672 5669 5666 5664 5662 5662 5661 5661 5659 5658 5657 5655 5655 5659 5658 5658 5662 5662 5667 5668 5668 5667 5667
5698 5695 5691 5688 5684 5681 5681 5683 5683 5683 5680 5677 5674 5672 5670 5666 5665 5663 5664 5664 5662 5660 5658 5655 5653 5652 5651 5649 5647 5645 5645 5645 5647 5649 5648 5645 5650 5652 5656 5657 5658 5657 5657
5687 5684 5681 5677 5674 5670 5671 5672 5673 5672 5668 5664 5662 5658 5657 5653 5651 5651 5652 5651 5649 5647 5646 5644 5642 5640 5638 5637 5634 5633 5632 5630 5631 5634 5636 5634 5636 5638 5642 5644 5646 5645 5645
5677 5674 5670 5666 5663 5659 5658 5659 5660 5660 5656 5652 5648 5644 5641 5639 5637 5636 5635 5634 5632 5630 5629 5629 5628 5627 5626 5625 5623 5619 5618 5615 5615 5617 5621 5619 5619 5620 5623 5629 5630 5630 5630